Location: Home
(42.5358°N, 72.7383°W)
Time: 15:49:39
(UTC-05:00)

Vanguard 1 - Pass Details

Date: 02 December 2021
Orbit: 652 x 3830 km, 34.2° (Epoch: 19 January)

Event Time Altitude Azimuth Distance (km) Brightness Sun altitude
Rises 23:28:20 0° 230° (SW) 7,143 - -69.4°
Reaches altitude 10° 23:32:51 10° 226° (SW) 6,409 - -69.5°
Maximum altitude 23:54:13 55° 156° (SSE) 4,300 - -69.4°
Exits shadow 00:09:15 23° 93° (E) 5,340 13.7 -68.7°
Drops below altitude 10° 00:14:11 10° 87° (E) 6,073 14.1 -68.4°
Sets 00:18:17 0° 83° (E) 6,769 14.5 -68.1°
